Time,TemperatureF,DewpointF,PressureIn,WindDirection,WindDirectionDegrees,WindSpeedMPH,WindSpeedGustMPH,Humidity,HourlyPrecipIn,Conditions,Clouds,dailyrainin,SolarRadiationWatts/m^2,SoftwareType,DateUTC
2013-07-19 00:12:00,51.5,50.0,29.92,North,5,0.0,0.0,95,0.00,,,0.00,0,weatherlink.com 1.10,2013-07-19 07:12:00,
2013-07-19 00:27:00,51.1,50.0,29.91,North,5,0.0,0.0,95,0.00,,,0.00,0,weatherlink.com 1.10,2013-07-19 07:27:00,
2013-07-19 00:42:00,51.4,50.0,29.91,North,5,0.0,0.0,96,0.00,,,0.00,0,weatherlink.com 1.10,2013-07-19 07:42:00,
2013-07-19 00:57:00,50.9,50.0,29.91,North,5,0.0,0.0,95,0.00,,,0.00,0,weatherlink.com 1.10,2013-07-19 07:57:00,
2013-07-19 01:12:00,51.4,50.0,29.91,North,5,0.0,0.0,96,0.00,,,0.00,0,weatherlink.com 1.10,2013-07-19 08:12:00,
2013-07-19 01:27:00,52.2,51.0,29.91,North,5,0.0,0.0,96,0.00,,,0.00,0,weatherlink.com 1.10,2013-07-19 08:27:00,
2013-07-19 01:42:00,52.3,51.0,29.91,North,5,0.0,0.0,96,0.00,,,0.00,0,weatherlink.com 1.10,2013-07-19 08:42:00,
2013-07-19 01:57:00,52.5,51.0,29.91,North,5,0.0,0.0,96,0.00,,,0.00,0,weatherlink.com 1.10,2013-07-19 08:57:00,
2013-07-19 02:12:00,52.6,52.0,29.90,North,5,0.0,0.0,96,0.00,,,0.00,0,weatherlink.com 1.10,2013-07-19 09:12:00,
2013-07-19 02:27:00,52.4,51.0,29.90,North,5,0.0,0.0,96,0.00,,,0.00,0,weatherlink.com 1.10,2013-07-19 09:27:00,
2013-07-19 02:42:00,52.3,51.0,29.90,North,5,0.0,0.0,96,0.00,,,0.00,0,weatherlink.com 1.10,2013-07-19 09:42:00,
2013-07-19 02:57:00,52.3,51.0,29.89,North,5,0.0,0.0,96,0.00,,,0.00,0,weatherlink.com 1.10,2013-07-19 09:57:00,
2013-07-19 03:12:00,52.4,52.0,29.89,North,5,0.0,0.0,97,0.00,,,0.00,0,weatherlink.com 1.10,2013-07-19 10:12:00,
2013-07-19 03:28:00,52.4,52.0,29.89,North,5,0.0,0.0,97,0.00,,,0.00,0,weatherlink.com 1.10,2013-07-19 10:28:00,
2013-07-19 03:43:00,52.5,52.0,29.88,North,5,0.0,0.0,97,0.00,,,0.00,0,weatherlink.com 1.10,2013-07-19 10:43:00,
2013-07-19 03:58:00,52.2,51.0,29.89,North,5,0.0,0.0,97,0.00,,,0.00,0,weatherlink.com 1.10,2013-07-19 10:58:00,
2013-07-19 04:13:00,52.4,52.0,29.89,North,5,0.0,0.0,97,0.00,,,0.00,0,weatherlink.com 1.10,2013-07-19 11:13:00,
2013-07-19 04:28:00,52.3,52.0,29.89,North,5,0.0,0.0,97,0.00,,,0.00,0,weatherlink.com 1.10,2013-07-19 11:28:00,
2013-07-19 04:43:00,52.3,52.0,29.89,North,5,0.0,0.0,97,0.00,,,0.00,0,weatherlink.com 1.10,2013-07-19 11:43:00,
2013-07-19 04:58:00,52.2,51.0,29.89,North,5,0.0,0.0,97,0.00,,,0.00,0,weatherlink.com 1.10,2013-07-19 11:58:00,
2013-07-19 05:13:00,52.2,51.0,29.89,North,5,0.0,0.0,97,0.00,,,0.00,0,weatherlink.com 1.10,2013-07-19 12:13:00,
2013-07-19 05:28:00,51.6,51.0,29.89,North,5,0.0,0.0,97,0.00,,,0.00,0,weatherlink.com 1.10,2013-07-19 12:28:00,
2013-07-19 05:43:00,51.4,51.0,29.90,North,5,0.0,0.0,97,0.00,,,0.00,0,weatherlink.com 1.10,2013-07-19 12:43:00,
2013-07-19 05:58:00,51.2,50.0,29.90,North,5,0.0,0.0,97,0.00,,,0.00,0,weatherlink.com 1.10,2013-07-19 12:58:00,
2013-07-19 06:13:00,51.1,50.0,29.91,North,5,0.0,0.0,97,0.00,,,0.00,0,weatherlink.com 1.10,2013-07-19 13:13:00,
2013-07-19 06:28:00,51.1,51.0,29.91,North,5,0.0,0.0,98,0.00,,,0.00,9,weatherlink.com 1.10,2013-07-19 13:28:00,
2013-07-19 06:43:00,51.0,51.0,29.91,North,5,0.0,0.0,98,0.00,,,0.00,19,weatherlink.com 1.10,2013-07-19 13:43:00,
2013-07-19 06:58:00,51.0,51.0,29.91,North,5,0.0,0.0,98,0.00,,,0.00,30,weatherlink.com 1.10,2013-07-19 13:58:00,
2013-07-19 07:13:00,51.2,51.0,29.91,North,5,0.0,0.0,98,0.00,,,0.00,33,weatherlink.com 1.10,2013-07-19 14:13:00,
2013-07-19 07:28:00,51.6,51.0,29.92,North,5,0.0,0.0,98,0.00,,,0.00,47,weatherlink.com 1.10,2013-07-19 14:28:00,
2013-07-19 07:43:00,51.8,51.0,29.91,North,5,0.0,0.0,98,0.00,,,0.00,53,weatherlink.com 1.10,2013-07-19 14:43:00,
2013-07-19 07:58:00,52.3,52.0,29.92,North,5,0.0,0.0,98,0.00,,,0.00,62,weatherlink.com 1.10,2013-07-19 14:58:00,
2013-07-19 08:13:00,52.7,52.0,29.92,North,5,0.0,0.0,98,0.00,,,0.00,90,weatherlink.com 1.10,2013-07-19 15:13:00,
2013-07-19 08:28:00,53.1,53.0,29.92,North,5,0.0,0.0,98,0.00,,,0.00,98,weatherlink.com 1.10,2013-07-19 15:28:00,
2013-07-19 08:43:00,53.8,53.0,29.93,North,5,0.0,0.0,96,0.00,,,0.00,118,weatherlink.com 1.10,2013-07-19 15:43:00,
2013-07-19 08:58:00,54.8,53.0,29.93,North,5,0.0,0.0,94,0.00,,,0.00,142,weatherlink.com 1.10,2013-07-19 15:58:00,
2013-07-19 09:13:00,54.9,53.0,29.93,North,5,0.0,0.0,92,0.00,,,0.00,162,weatherlink.com 1.10,2013-07-19 16:13:00,
2013-07-19 09:28:00,55.5,53.0,29.93,North,5,0.0,0.0,92,0.00,,,0.00,192,weatherlink.com 1.10,2013-07-19 16:28:00,
2013-07-19 09:43:00,56.2,54.0,29.92,North,5,0.0,0.0,93,0.00,,,0.00,248,weatherlink.com 1.10,2013-07-19 16:43:00,
2013-07-19 09:58:00,58.6,55.0,29.92,North,5,0.0,0.0,89,0.00,,,0.00,334,weatherlink.com 1.10,2013-07-19 16:58:00,
2013-07-19 10:13:00,61.2,57.0,29.92,North,5,0.0,0.0,87,0.00,,,0.00,749,weatherlink.com 1.10,2013-07-19 17:13:00,
2013-07-19 10:28:00,63.6,57.0,29.91,North,5,0.0,0.0,80,0.00,,,0.00,726,weatherlink.com 1.10,2013-07-19 17:28:00,
2013-07-19 10:43:00,63.7,57.0,29.91,North,5,0.0,0.0,80,0.00,,,0.00,773,weatherlink.com 1.10,2013-07-19 17:43:00,
2013-07-19 10:58:00,65.7,58.0,29.91,North,5,0.0,0.0,77,0.00,,,0.00,805,weatherlink.com 1.10,2013-07-19 17:58:00,
2013-07-19 11:14:00,67.9,60.0,29.91,North,5,0.0,0.0,75,0.00,,,0.00,840,weatherlink.com 1.10,2013-07-19 18:14:00,
2013-07-19 11:29:00,69.6,59.0,29.90,North,5,0.0,0.0,69,0.00,,,0.00,870,weatherlink.com 1.10,2013-07-19 18:29:00,
2013-07-19 11:44:00,71.5,60.0,29.89,North,5,0.0,0.0,67,0.00,,,0.00,891,weatherlink.com 1.10,2013-07-19 18:44:00,
2013-07-19 11:59:00,72.4,60.0,29.89,North,5,0.0,0.0,66,0.00,,,0.00,916,weatherlink.com 1.10,2013-07-19 18:59:00,
2013-07-19 12:14:00,74.3,63.0,29.88,North,5,0.0,0.0,68,0.00,,,0.00,935,weatherlink.com 1.10,2013-07-19 19:14:00,
2013-07-19 12:29:00,75.9,63.0,29.88,North,5,0.0,0.0,64,0.00,,,0.00,951,weatherlink.com 1.10,2013-07-19 19:29:00,
2013-07-19 12:44:00,75.9,62.0,29.87,North,5,0.0,0.0,62,0.00,,,0.00,946,weatherlink.com 1.10,2013-07-19 19:44:00,
2013-07-19 12:59:00,76.3,64.0,29.87,North,5,0.0,0.0,66,0.00,,,0.00,965,weatherlink.com 1.10,2013-07-19 19:59:00,
2013-07-19 13:14:00,76.5,61.0,29.86,North,5,0.0,0.0,60,0.00,,,0.00,965,weatherlink.com 1.10,2013-07-19 20:14:00,
2013-07-19 13:29:00,77.7,62.0,29.86,North,5,0.0,0.0,58,0.00,,,0.00,970,weatherlink.com 1.10,2013-07-19 20:29:00,
2013-07-19 13:44:00,77.6,62.0,29.85,North,5,0.0,0.0,59,0.00,,,0.00,956,weatherlink.com 1.10,2013-07-19 20:44:00,
2013-07-19 13:59:00,77.1,63.0,29.84,North,5,0.0,1.0,62,0.00,,,0.00,960,weatherlink.com 1.10,2013-07-19 20:59:00,
2013-07-19 14:14:00,76.6,63.0,29.84,North,5,0.0,0.0,63,0.00,,,0.00,940,weatherlink.com 1.10,2013-07-19 21:14:00,
2013-07-19 14:29:00,75.9,61.0,29.83,North,5,0.0,0.0,61,0.00,,,0.00,925,weatherlink.com 1.10,2013-07-19 21:29:00,
2013-07-19 14:44:00,76.3,61.0,29.82,North,5,0.0,0.0,60,0.00,,,0.00,893,weatherlink.com 1.10,2013-07-19 21:44:00,
2013-07-19 14:59:00,74.8,60.0,29.82,North,5,0.0,0.0,61,0.00,,,0.00,863,weatherlink.com 1.10,2013-07-19 21:59:00,
2013-07-19 15:14:00,75.6,60.0,29.82,North,5,0.0,0.0,58,0.00,,,0.00,844,weatherlink.com 1.10,2013-07-19 22:14:00,
2013-07-19 15:29:00,76.3,61.0,29.81,North,5,0.0,0.0,59,0.00,,,0.00,805,weatherlink.com 1.10,2013-07-19 22:29:00,
2013-07-19 15:44:00,75.6,60.0,29.81,North,5,0.0,0.0,58,0.00,,,0.00,768,weatherlink.com 1.10,2013-07-19 22:44:00,
2013-07-19 15:59:00,75.8,59.0,29.80,North,5,0.0,1.0,56,0.00,,,0.00,742,weatherlink.com 1.10,2013-07-19 22:59:00,
2013-07-19 16:15:00,76.4,60.0,29.80,North,5,0.0,0.0,57,0.00,,,0.00,703,weatherlink.com 1.10,2013-07-19 23:15:00,
2013-07-19 16:30:00,76.1,60.0,29.80,North,5,0.0,1.0,58,0.00,,,0.00,664,weatherlink.com 1.10,2013-07-19 23:30:00,
2013-07-19 16:45:00,75.4,59.0,29.80,North,5,0.0,0.0,57,0.00,,,0.00,617,weatherlink.com 1.10,2013-07-19 23:45:00,
2013-07-19 17:00:00,74.3,59.0,29.80,North,5,0.0,0.0,59,0.00,,,0.00,577,weatherlink.com 1.10,2013-07-20 00:00:00,
2013-07-19 17:15:00,73.3,58.0,29.79,North,5,0.0,0.0,60,0.00,,,0.00,527,weatherlink.com 1.10,2013-07-20 00:15:00,
2013-07-19 17:30:00,72.4,58.0,29.78,North,5,0.0,0.0,61,0.00,,,0.00,492,weatherlink.com 1.10,2013-07-20 00:30:00,
2013-07-19 17:45:00,72.5,59.0,29.78,North,5,0.0,0.0,62,0.00,,,0.00,434,weatherlink.com 1.10,2013-07-20 00:45:00,
2013-07-19 18:00:00,71.7,57.0,29.78,North,5,0.0,0.0,60,0.00,,,0.00,388,weatherlink.com 1.10,2013-07-20 01:00:00,
2013-07-19 18:15:00,71.1,57.0,29.78,North,5,0.0,0.0,61,0.00,,,0.00,276,weatherlink.com 1.10,2013-07-20 01:15:00,
2013-07-19 18:30:00,69.7,56.0,29.77,North,5,0.0,1.0,63,0.00,,,0.00,153,weatherlink.com 1.10,2013-07-20 01:30:00,
2013-07-19 18:45:00,68.6,56.0,29.77,North,5,0.0,0.0,64,0.00,,,0.00,90,weatherlink.com 1.10,2013-07-20 01:45:00,
2013-07-19 19:00:00,67.4,56.0,29.77,North,5,0.0,1.0,67,0.00,,,0.00,62,weatherlink.com 1.10,2013-07-20 02:00:00,
2013-07-19 19:15:00,66.4,55.0,29.77,North,5,0.0,0.0,68,0.00,,,0.00,47,weatherlink.com 1.10,2013-07-20 02:15:00,
2013-07-19 19:30:00,65.3,55.0,29.78,North,5,0.0,0.0,70,0.00,,,0.00,35,weatherlink.com 1.10,2013-07-20 02:30:00,
2013-07-19 19:45:00,63.9,55.0,29.78,North,5,0.0,0.0,72,0.00,,,0.00,25,weatherlink.com 1.10,2013-07-20 02:45:00,
2013-07-19 20:00:00,62.2,54.0,29.78,North,5,0.0,0.0,75,0.00,,,0.00,19,weatherlink.com 1.10,2013-07-20 03:00:00,
2013-07-19 20:15:00,61.1,54.0,29.79,North,5,0.0,0.0,77,0.00,,,0.00,12,weatherlink.com 1.10,2013-07-20 03:15:00,
2013-07-19 20:30:00,59.3,54.0,29.79,North,5,0.0,0.0,81,0.00,,,0.00,7,weatherlink.com 1.10,2013-07-20 03:30:00,
2013-07-19 20:45:00,58.0,53.0,29.79,North,5,0.0,0.0,83,0.00,,,0.00,0,weatherlink.com 1.10,2013-07-20 03:45:00,
2013-07-19 21:00:00,56.9,53.0,29.79,North,5,0.0,0.0,85,0.00,,,0.00,0,weatherlink.com 1.10,2013-07-20 04:00:00,
2013-07-19 21:15:00,55.9,52.0,29.80,North,5,0.0,0.0,87,0.00,,,0.00,0,weatherlink.com 1.10,2013-07-20 04:15:00,
2013-07-19 21:30:00,55.1,52.0,29.80,North,5,0.0,0.0,88,0.00,,,0.00,0,weatherlink.com 1.10,2013-07-20 04:30:00,
2013-07-19 21:45:00,54.5,51.0,29.81,North,5,0.0,0.0,89,0.00,,,0.00,0,weatherlink.com 1.10,2013-07-20 04:45:00,
2013-07-19 22:00:00,53.7,51.0,29.81,North,5,0.0,0.0,90,0.00,,,0.00,0,weatherlink.com 1.10,2013-07-20 05:00:00,
2013-07-19 22:15:00,53.2,51.0,29.81,North,5,0.0,0.0,91,0.00,,,0.00,0,weatherlink.com 1.10,2013-07-20 05:15:00,
2013-07-19 22:30:00,53.0,51.0,29.81,North,5,0.0,0.0,92,0.00,,,0.00,0,weatherlink.com 1.10,2013-07-20 05:30:00,
2013-07-19 22:45:00,52.6,51.0,29.81,North,5,0.0,0.0,93,0.00,,,0.00,0,weatherlink.com 1.10,2013-07-20 05:45:00,
2013-07-19 23:00:00,52.3,50.0,29.81,North,5,0.0,0.0,93,0.00,,,0.00,0,weatherlink.com 1.10,2013-07-20 06:00:00,
2013-07-19 23:15:00,52.1,51.0,29.82,North,5,0.0,0.0,94,0.00,,,0.00,0,weatherlink.com 1.10,2013-07-20 06:15:00,
2013-07-19 23:30:00,51.7,50.0,29.82,North,5,0.0,0.0,94,0.00,,,0.00,0,weatherlink.com 1.10,2013-07-20 06:30:00,
2013-07-19 23:45:00,51.7,50.0,29.82,North,5,0.0,0.0,94,0.00,,,0.00,0,weatherlink.com 1.10,2013-07-20 06:45:00,